DW8107 Weather Reports


Display with metric or nautical units.
time (UTC)temp
F
wind
direction
speed
MPH
gust
MPH
rain 1hr
in
rain 24hr
in
rain mn
in
humidity
%
barometer
mb
20181115013127 76 33 0.0 1.0 0.00 0.03 0.03 90 1014.4
20181115011600 76 22 0.0 3.0 0.00 0.03 0.03 89 1014.1
20181115010121 76 257 0.0 2.0 0.00 0.03 0.03 89 1014.4
20181115004619 76 30 0.0 1.0 0.00 0.03 0.03 90 1014.4
20181115003057 76 23 0.0 0.0 0.00 0.03 0.03 92 1014.2
20181115001547 76 21 0.0 0.0 0.00 0.03 0.03 92 1014.1
20181115000057 76 22 0.0 0.0 0.00 0.03 0.03 92 1014.2
20181114234610 76 22 0.0 1.0 0.00 0.03 0.03 92 1013.9
20181114233109 75 23 0.0 0.0 0.00 0.03 0.03 92 1013.6
20181114231613 75 23 0.0 0.0 0.00 0.03 0.03 92 1014.0
20181114230053 76 23 0.0 0.0 0.00 0.03 0.03 92 1014.2
20181114224625 76 23 0.0 0.0 0.00 0.03 0.03 92 1014.2
20181114223046 77 23 0.0 0.0 0.02 0.03 0.03 91 1014.2
20181114221548 78 13 0.0 0.0 0.02 0.03 0.03 91 1014.2
20181114220103 79 15 0.0 0.0 0.02 0.03 0.03 89 1014.1
20181114214603 81 11 0.0 0.0 0.02 0.03 0.03 84 1014.0
20181114213047 83 6 0.0 2.0 0.00 0.01 0.01 75 1014.0
20181114211541 84 53 0.0 4.0 0.00 0.01 0.01 71 1013.9
20181114210104 84 359 0.0 4.0 0.00 0.01 0.01 69 1013.9
20181114204527 85 100 0.0 2.0 0.00 0.01 0.01 69 1014.1
20181114203053 85 150 0.0 6.0 0.00 0.01 0.01 69 1014.3
20181114201603 84 18 0.0 4.0 0.00 0.01 0.01 69 1014.4
20181114200022 85 132 0.0 1.0 0.00 0.01 0.01 69 1014.5
20181114194547 85 153 1.0 7.0 0.00 0.01 0.01 67 1014.6
20181114193017 86 160 1.0 6.0 0.00 0.01 0.01 67 1014.6
20181114191520 85 3 0.0 5.0 0.00 0.01 0.01 67 1014.8
20181114190034 84 319 1.0 7.0 0.00 0.01 0.01 68 1014.9
20181114184515 85 30 2.0 8.0 0.00 0.01 0.01 68 1015.3
20181114183006 85 113 0.0 6.0 0.00 0.01 0.01 68 1015.6
20181114181502 85 25 3.0 7.0 0.00 0.01 0.01 69 1015.8
20181114180124 84 146 0.0 6.0 0.00 0.01 0.01 70 1016.0
20181114174718 84 40 0.0 5.0 0.00 0.01 0.01 72 1016.2
20181114173145 83 322 0.0 6.0 0.00 0.01 0.01 72 1016.7
20181114171640 82 9 0.0 4.0 0.00 0.01 0.01 76 1017.1
20181114164652 82 358 2.0 6.0 0.00 0.01 0.01 76 1017.7
20181114163137 81 56 2.0 11.0 0.00 0.01 0.01 79 1017.7
20181114161631 80 338 2.0 6.0 0.00 0.01 0.01 80 1017.9
20181114160129 79 338 1.0 6.0 0.00 0.01 0.01 82 1018.3
20181114154611 77 43 0.0 6.0 0.00 0.01 0.01 84 1018.6
20181114153103 77 58 3.0 7.0 0.00 0.01 0.01 84 1018.6
20181114151638 77 1 3.0 10.0 0.00 0.01 0.01 85 1018.6
20181114150047 76 335 1.0 5.0 0.00 0.01 0.01 87 1018.7
20181114144632 75 338 2.0 6.0 0.00 0.01 0.01 88 1018.7
20181114143112 74 127 0.0 4.0 0.00 0.01 0.01 90 1018.9
20181114141548 73 4 0.0 3.0 0.00 0.01 0.01 91 1018.9
20181114140053 71 44 0.0 3.0 0.00 0.01 0.01 92 1019.0
20181114134539 71 39 1.0 6.0 0.00 0.01 0.01 93 1019.0
20181114133037 70 1 2.0 6.0 0.00 0.01 0.01 93 1018.9
20181114131531 70 324 3.0 8.0 0.00 0.01 0.01 92 1018.9
20181114130034 70 18 1.0 9.0 0.00 0.01 0.01 92 1018.9
20181114124529 71 34 1.0 5.0 0.00 0.01 0.01 92 1018.6
20181114123019 71 18 0.0 4.0 0.00 0.01 0.01 92 1018.6
20181114121532 72 19 0.0 3.0 0.00 0.01 0.01 92 1018.5
20181114120015 71 338 0.0 4.0 0.00 0.01 0.01 92 1018.5
20181114114534 71 336 0.0 3.0 0.00 0.01 0.01 92 1018.4
20181114113019 72 9 0.0 3.0 0.00 0.01 0.01 92 1018.2
20181114111514 72 3 0.0 5.0 0.00 0.01 0.01 92 1018.0
20181114110007 72 16 1.0 3.0 0.00 0.01 0.01 92 1017.9
20181114104509 72 29 0.0 2.0 0.00 0.01 0.01 92 1017.9
20181114103259 72 47 0.0 1.0 0.00 0.01 0.01 92 1017.7
20181114101703 72 20 0.0 3.0 0.00 0.01 0.01 92 1017.4
20181114100149 71 13 0.0 1.0 0.00 0.01 0.01 91 1017.4
20181114094628 71 29 0.0 1.0 0.00 0.01 0.01 91 1017.3
20181114093158 71 7 0.0 1.0 0.00 0.01 0.01 92 1017.2
20181114091636 71 20 0.0 1.0 0.00 0.01 0.01 92 1017.1
20181114090132 72 32 0.0 1.0 0.00 0.01 0.01 92 1017.0
20181114084713 72 35 0.0 1.0 0.00 0.01 0.01 92 1017.1
20181114083202 72 45 0.0 2.0 0.00 0.01 0.01 92 1016.8
20181114081548 72 15 0.0 2.0 0.00 0.01 0.01 92 1016.8
20181114080131 73 338 0.0 1.0 0.00 0.01 0.01 92 1016.8
20181114074611 73 15 0.0 3.0 0.00 0.01 0.01 92 1016.9
20181114073124 73 29 0.0 2.0 0.00 0.01 0.01 91 1016.9
20181114071606 73 25 0.0 3.0 0.01 0.01 0.01 91 1016.9
20181114070055 73 195 0.0 2.0 0.01 0.01 0.01 91 1017.0
20181114064532 74 36 0.0 2.0 0.01 0.01 0.01 91 1017.0
20181114063137 74 33 0.0 4.0 0.01 0.01 0.01 91 1017.2
20181114061618 74 316 1.0 7.0 0.00 0.00 0.00 91 1016.9
20181114060046 74 30 0.0 4.0 0.00 0.00 0.00 90 1017.0
20181114054555 75 9 0.0 0.0 0.00 0.00 0.00 90 1017.1
20181114053054 75 34 0.0 2.0 0.00 0.00 0.00 91 1017.0
20181114051523 75 21 0.0 1.0 0.00 0.00 0.00 91 1017.2
20181114050024 75 338 0.0 0.0 0.00 0.00 0.00 91 1017.3
20181114044526 75 91 0.0 0.0 0.00 0.00 0.00 90 1017.4
20181114043014 75 109 0.0 0.0 0.00 0.00 0.00 90 1017.5
20181114041525 74 109 0.0 0.0 0.00 0.00 0.00 91 1017.5
20181114040018 74 109 0.0 0.0 0.00 0.00 0.00 91 1017.4
20181114034528 74 109 0.0 0.0 0.00 0.00 0.00 91 1017.3
20181114033027 75 109 0.0 0.0 0.00 0.00 0.00 92 1017.2
20181114031509 75 108 0.0 0.0 0.00 0.00 0.00 92 1017.3
20181114030030 75 108 0.0 0.0 0.00 0.00 0.00 92 1017.3
20181114024519 75 109 0.0 0.0 0.00 0.00 0.00 92 1017.1
20181114023005 76 108 0.0 0.0 0.00 0.00 0.00 92 1017.0
20181114021507 76 109 0.0 0.0 0.00 0.00 0.00 92 1017.0
20181114020003 76 108 0.0 0.0 0.00 0.00 0.00 92 1016.8
20181114014511 76 109 0.0 0.0 0.00 0.00 0.00 91 1016.8